This is the latest recevied weather packets stored in our database for station/object K4AMF. If no packets are shown the sender has not sent any weather packets the latest 10 day(s).
| Time | Temp. | Humidity | Pressure | Rain* | Wind** | Luminosity | Snow |
|---|---|---|---|---|---|---|---|
| 1777727749 | 20.56° C | 87% | 1011.3 hPa | 0 mm | - | 23 W/m² | - |
| 1777727446 | 20.56° C | 87% | 1011.5 hPa | 0 mm | - | 33 W/m² | - |
| 1777727143 | 20.56° C | 87% | 1011.4 hPa | 0 mm | - | 40 W/m² | - |
| 1777726841 | 20.56° C | 87% | 1011.5 hPa | 0 mm | - | 10 W/m² | - |
| 1777726537 | 20° C | 87% | 1011.5 hPa | 0 mm | - | 20 W/m² | - |
| 1777726235 | 20° C | 87% | 1011.3 hPa | 0 mm | - | 32 W/m² | - |
| 1777725931 | 20° C | 87% | 1011.3 hPa | 0 mm | - | 33 W/m² | - |
| 1777725628 | 20° C | 87% | 1011.1 hPa | 0 mm | - | 38 W/m² | - |
| 1777725326 | 20° C | 87% | 1010.8 hPa | 0 mm | - | 36 W/m² | - |
| 1777725023 | 20° C | 87% | 1011.1 hPa | 0 mm | - | 35 W/m² | - |
| 1777724720 | 20° C | 87% | 1011.1 hPa | 0 mm | - | 31 W/m² | - |
| 1777724417 | 20° C | 87% | 1011 hPa | 0 mm | - | 34 W/m² | - |
| 1777724114 | 20° C | 87% | 1011 hPa | 0 mm | - | 41 W/m² | - |
| 1777723811 | 20° C | 87% | 1010.8 hPa | 0 mm | - | 38 W/m² | - |
| 1777723508 | 20° C | 87% | 1010.9 hPa | 0 mm | - | 35 W/m² | - |
| 1777723205 | 19.44° C | 87% | 1010.9 hPa | 0 mm | - | 43 W/m² | - |
| 1777722598 | 19.44° C | 87% | 1010.5 hPa | 0 mm | - | 36 W/m² | - |
| 1777721992 | 19.44° C | 87% | 1010.8 hPa | 0 mm | - | 30 W/m² | - |
| 1777721689 | 19.44° C | 87% | 1010.8 hPa | 0 mm | - | 20 W/m² | - |
| 1777721388 | 19.44° C | 88% | 1010.7 hPa | 0 mm | - | 19 W/m² | - |
| 1777721085 | 19.44° C | 88% | 1010.9 hPa | 0 mm | - | 11 W/m² | - |
| 1777720783 | 19.44° C | 88% | 1011.1 hPa | 0 mm | - | 12 W/m² | - |
| 1777720480 | 19.44° C | 88% | 1010.7 hPa | 0 mm | - | 15 W/m² | - |
| 1777720177 | 19.44° C | 88% | 1010.5 hPa | 0 mm | - | 8 W/m² | - |
| 1777719875 | 19.44° C | 88% | 1011 hPa | 0 mm | - | 7 W/m² | - |
* Rain latest hour (hover to see other rain measurements)
** Current wind speed in m/s (hover to see current wind gust speed)